QPF
0.01 0.01 0.01 0.01 0.01 0.01 0.01 0.01 0.00 0.01 0.01 0.01 0.01 0.01 0.01 0.02 0.03 0.02 0.03 0.03 0.04 0.06 0.09 0.09 0.08 0.06 0.06 0.06 0.05 0.04 0.03 0.02 0.01 0.01 0.01 0.01 0.00 0.00 0.00 0.00 0.00 0.01 0.01 0.01
0.01 0.01 0.01 0.01 0.01 0.01 0.01 0.01 0.00 0.00 0.00 0.01 0.01 0.01 0.01 0.01 0.02 0.02 0.02 0.03 0.03 0.04 0.06 0.06 0.06 0.05 0.04 0.03 0.02 0.02 0.02 0.02 0.01 0.01 0.01 0.01 0.00 0.00 0.00 0.00 0.00 0.00 0.01 0.01
0.01 0.01 0.01 0.01 0.01 0.01 0.01 0.01 0.01 0.02 0.01 0.01 0.01 0.01 0.01 0.01 0.03 0.03 0.03 0.03 0.03 0.04 0.06 0.07 0.06 0.04 0.04 0.04 0.03 0.02 0.02 0.01 0.00 0.00 0.00 0.00 0.01 0.00 0.00 0.00 0.00 0.00 0.01 0.01
0.01 0.01 0.01 0.01 0.01 0.01 0.01 0.01 0.01 0.02 0.01 0.01 0.01 0.01 0.01 0.02 0.04 0.04 0.04 0.04 0.03 0.03 0.04 0.05 0.04 0.04 0.04 0.04 0.03 0.02 0.01 0.01 0.00 0.00 0.00 0.00 0.00 0.00 0.00 0.00 0.00 0.00 0.01 0.02
0.01 0.01 0.00 0.01 0.00 0.00 0.01 0.01 0.01 0.00 0.01 0.01 0.01 0.01 0.02 0.03 0.04 0.04 0.04 0.04 0.05 0.05 0.04 0.04 0.03 0.03 0.03 0.03 0.02 0.02 0.02 0.01 0.00 0.00 0.00 0.00 0.00 0.00 0.00 0.00 0.00 0.00 0.01 0.01
0.01 0.01 0.00 0.00 0.00 0.00 0.00 0.01 0.00 0.00 0.00 0.01 0.01 0.01 0.02 0.03 0.04 0.03 0.03 0.04 0.06 0.05 0.03 0.03 0.02 0.02 0.02 0.02 0.02 0.02 0.02 0.02 0.01 0.01 0.01 0.00 0.00 0.00 0.00 0.00 0.01 0.01 0.01 0.01
0.00 0.00 0.00 0.00 0.00 0.00 0.00 0.00 0.00 0.00 0.01 0.01 0.01 0.01 0.01 0.01 0.02 0.03 0.02 0.03 0.04 0.05 0.04 0.04 0.04 0.03 0.03 0.04 0.03 0.02 0.02 0.01 0.01 0.01 0.01 0.01 0.01 0.01 0.01 0.01 0.01 0.02 0.03 0.03
0.00 0.00 0.00 0.00 0.00 0.00 0.01 0.00 0.00 0.01 0.01 0.01 0.01 0.01 0.01 0.01 0.01 0.01 0.02 0.02 0.02 0.03 0.04 0.03 0.04 0.04 0.04 0.05 0.04 0.03 0.02 0.01 0.00 0.00 0.00 0.00 0.01 0.01 0.01 0.01 0.01 0.01 0.02 0.04
0.00 0.00 0.00 0.00 0.00 0.00 0.00 0.00 0.00 0.01 0.01 0.01 0.01 0.01 0.01 0.01 0.02 0.01 0.02 0.02 0.02 0.03 0.03 0.03 0.04 0.05 0.05 0.05 0.04 0.03 0.02 0.01 0.00 0.00 0.00 0.01 0.01 0.01 0.02 0.02 0.03 0.02 0.02 0.03
0.00 0.01 0.01 0.01 0.00 0.00 0.00 0.00 0.00 0.01 0.01 0.01 0.01 0.01 0.01 0.01 0.01 0.01 0.02 0.02 0.02 0.03 0.03 0.03 0.04 0.04 0.04 0.04 0.04 0.03 0.02 0.01 0.00 0.01 0.01 0.00 0.00 0.01 0.01 0.02 0.03 0.02 0.03 0.04
0.00 0.00 0.00 0.01 0.01 0.00 0.00 0.00 0.00 0.01 0.01 0.01 0.01 0.02 0.02 0.02 0.02 0.02 0.02 0.01 0.01 0.02 0.03 0.03 0.03 0.04 0.04 0.05 0.04 0.02 0.02 0.01 0.01 0.01 0.00 0.00 0.00 0.00 0.00 0.02 0.03 0.02 0.02 0.02
0.00 0.00 0.00 0.00 0.00 0.00 0.00 0.01 0.01 0.00 0.01 0.01 0.01 0.01 0.03 0.04 0.04 0.03 0.02 0.02 0.02 0.01 0.02 0.02 0.02 0.03 0.03 0.04 0.03 0.03 0.02 0.01 0.01 0.01 0.01 0.00 0.00 0.00 0.01 0.02 0.03 0.02 0.01 0.01
0.00 0.00 0.00 0.01 0.01 0.01 0.00 0.01 0.01 0.01 0.00 0.01 0.01 0.01 0.02 0.03 0.06 0.06 0.04 0.02 0.02 0.01 0.01 0.01 0.01 0.02 0.02 0.02 0.02 0.01 0.01 0.01 0.01 0.01 0.01 0.01 0.01 0.01 0.01 0.01 0.01 0.01 0.00 0.00
0.00 0.00 0.00 0.01 0.01 0.01 0.01 0.00 0.00 0.01 0.01 0.00 0.01 0.01 0.02 0.02 0.04 0.06 0.06 0.04 0.02 0.02 0.01 0.01 0.01 0.01 0.01 0.01 0.02 0.01 0.01 0.01 0.01 0.01 0.01 0.01 0.01 0.01 0.01 0.01 0.01 0.01 0.01 0.00
0.00 0.00 0.00 0.01 0.00 0.01 0.01 0.00 0.00 0.00 0.01 0.01 0.01 0.01 0.01 0.02 0.03 0.04 0.05 0.05 0.03 0.02 0.01 0.01 0.01 0.01 0.01 0.01 0.02 0.01 0.00 0.00 0.01 0.01 0.01 0.01 0.01 0.01 0.00 0.00 0.00 0.01 0.01 0.01
0.00 0.01 0.01 0.01 0.01 0.00 0.00 0.00 0.00 0.00 0.00 0.01 0.01 0.01 0.01 0.01 0.02 0.02 0.03 0.03 0.02 0.02 0.01 0.01 0.02 0.02 0.01 0.01 0.01 0.01 0.00 0.01 0.01 0.01 0.01 0.00 0.00 0.00 0.00 0.00 0.00 0.00 0.00 0.01
0.00 0.00 0.01 0.00 0.00 0.00 0.00 0.00 0.00 0.00 0.00 0.00 0.00 0.01 0.01 0.01 0.01 0.01 0.02 0.02 0.02 0.01 0.01 0.01 0.02 0.02 0.02 0.01 0.01 0.00 0.00 0.00 0.00 0.00 0.00 0.00 0.00 0.00 0.00 0.00 0.00 0.00 0.00 0.00
0.00 0.00 0.00 0.00 0.00 0.00 0.00 0.00 0.00 0.00 0.00 0.00 0.00 0.01 0.01 0.01 0.01 0.01 0.01 0.01 0.02 0.01 0.01 0.00 0.01 0.02 0.01 0.01 0.00 0.00 0.00 0.00 0.00 0.00 0.00 0.00 0.00 0.00 0.00 0.00 0.00 0.00 0.00 0.00
0.00 0.00 0.00 0.00 0.00 0.00 0.00 0.00 0.00 0.00 0.00 0.00 0.00 0.00 0.00 0.01 0.01 0.01 0.01 0.01 0.01 0.00 0.00 0.00 0.00 0.00 0.00 0.00 0.00 0.00 0.00 0.00 0.00 0.00 0.00 0.00 0.00 0.00 0.00 0.00 0.00 0.00 0.00 0.00
0.00 0.00 0.00 0.00 0.01 0.01 0.01 0.00 0.00 0.00 0.00 0.00 0.00 0.00 0.00 0.01 0.01 0.01 0.01 0.01 0.00 0.00 0.00 0.00 0.00 0.00 0.00 0.00 0.00 0.00 0.00 0.00 0.00 0.00 0.00 0.00 0.00 0.00 0.00 0.00 0.00 0.00 0.00 0.00
0.00 0.00 0.00 0.00 0.00 0.01 0.01 0.00 0.00 0.00 0.00 0.00 0.00 0.00 0.00 0.00 0.01 0.01 0.01 0.01 0.01 0.01 0.00 0.00 0.00 0.00 0.00 0.00 0.00 0.00 0.00 0.00 0.00 0.00 0.00 0.00 0.00 0.00 0.00 0.00 0.00 0.00 0.00 0.00
0.00 0.00 0.00 0.00 0.01 0.01 0.01 0.01 0.00 0.00 0.00 0.00 0.00 0.00 0.00 0.00 0.00 0.00 0.00 0.00 0.01 0.00 0.00 0.00 0.00 0.00 0.00 0.00 0.00 0.00 0.00 0.00 0.00 0.00 0.00 0.00 0.00 0.00 0.00 0.00 0.00 0.00 0.00 0.00
0.00 0.00 0.00 0.01 0.01 0.01 0.00 0.00 0.00 0.00 0.00 0.00 0.00 0.00 0.00 0.00 0.00 0.00 0.00 0.00 0.00 0.00 0.00 0.00 0.00 0.00 0.00 0.00 0.00 0.00 0.00 0.00 0.00 0.00 0.00 0.00 0.00 0.00 0.00 0.00 0.00 0.00 0.00 0.00
0.00 0.00 0.01 0.01 0.00 0.00 0.00 0.00 0.00 0.00 0.00 0.00 0.00 0.00 0.00 0.00 0.00 0.00 0.00 0.00 0.00 0.00 0.00 0.00 0.00 0.00 0.01 0.01 0.00 0.01 0.01 0.00 0.00 0.00 0.00 0.00 0.00 0.00 0.00 0.00 0.00 0.00 0.00 0.01
0.00 0.00 0.00 0.00 0.00 0.00 0.00 0.00 0.00 0.00 0.00 0.00 0.00 0.00 0.00 0.00 0.00 0.00 0.00 0.00 0.00 0.00 0.00 0.00 0.00 0.00 0.01 0.01 0.01 0.01 0.01 0.01 0.01 0.00 0.00 0.00 0.00 0.00 0.00 0.00 0.00 0.01 0.01 0.01
0.00 0.00 0.00 0.00 0.00 0.00 0.00 0.00 0.00 0.00 0.00 0.00 0.00 0.00 0.00 0.00 0.00 0.00 0.00 0.00 0.00 0.00 0.00 0.00 0.00 0.00 0.00 0.00 0.01 0.01 0.01 0.01 0.01 0.01 0.01 0.00 0.00 0.00 0.00 0.00 0.01 0.01 0.01 0.01
0.00 0.00 0.00 0.00 0.00 0.00 0.00 0.00 0.00 0.00 0.00 0.00 0.00 0.00 0.00 0.00 0.00 0.00 0.00 0.00 0.00 0.00 0.00 0.00 0.00 0.00 0.00 0.00 0.00 0.00 0.00 0.00 0.00 0.00 0.01 0.00 0.00 0.00 0.00 0.00 0.00 0.00 0.00 0.00
MSLP
1015.38 1015.54 1015.65 1015.69 1015.68 1015.61 1015.49 1015.32 1015.15 1014.98 1014.85 1014.80 1014.84 1014.99 1015.22 1015.49 1015.75 1015.93 1015.98 1015.82 1015.46 1014.89 1014.16 1013.36 1012.57 1011.90 1011.43 1011.22 1011.31 1011.66 1012.23 1012.95 1013.74 1014.50 1015.17 1015.71 1016.10 1016.36 1016.52 1016.64 1016.75 1016.91 1017.15 1017.48
1015.43 1015.54 1015.53 1015.43 1015.26 1015.03 1014.77 1014.52 1014.31 1014.18 1014.15 1014.25 1014.47 1014.80 1015.21 1015.64 1016.01 1016.25 1016.31 1016.13 1015.71 1015.06 1014.25 1013.36 1012.49 1011.74 1011.20 1010.94 1010.98 1011.31 1011.88 1012.63 1013.46 1014.29 1015.04 1015.67 1016.16 1016.50 1016.72 1016.88 1017.00 1017.15 1017.36 1017.64
1015.42 1015.46 1015.36 1015.14 1014.84 1014.49 1014.15 1013.86 1013.66 1013.59 1013.67 1013.90 1014.28 1014.76 1015.30 1015.81 1016.23 1016.48 1016.50 1016.25 1015.74 1014.99 1014.09 1013.10 1012.15 1011.34 1010.74 1010.45 1010.46 1010.79 1011.38 1012.15 1013.04 1013.94 1014.79 1015.53 1016.12 1016.56 1016.87 1017.08 1017.25 1017.41 1017.60 1017.86
1015.34 1015.30 1015.11 1014.81 1014.43 1014.02 1013.65 1013.37 1013.21 1013.22 1013.40 1013.75 1014.25 1014.83 1015.43 1015.98 1016.38 1016.58 1016.52 1016.18 1015.55 1014.71 1013.71 1012.66 1011.65 1010.79 1010.17 1009.86 1009.88 1010.21 1010.82 1011.63 1012.56 1013.54 1014.48 1015.31 1016.01 1016.55 1016.96 1017.25 1017.48 1017.67 1017.87 1018.11
1015.14 1015.03 1014.79 1014.44 1014.03 1013.62 1013.27 1013.03 1012.95 1013.04 1013.31 1013.75 1014.32 1014.95 1015.56 1016.08 1016.43 1016.54 1016.39 1015.94 1015.22 1014.30 1013.24 1012.15 1011.13 1010.27 1009.66 1009.36 1009.39 1009.74 1010.36 1011.20 1012.17 1013.20 1014.20 1015.11 1015.90 1016.53 1017.03 1017.40 1017.69 1017.92 1018.15 1018.39
1014.81 1014.65 1014.38 1014.03 1013.64 1013.27 1012.98 1012.82 1012.82 1012.99 1013.34 1013.84 1014.44 1015.06 1015.64 1016.10 1016.37 1016.39 1016.15 1015.62 1014.85 1013.89 1012.82 1011.75 1010.75 1009.94 1009.37 1009.11 1009.17 1009.53 1010.17 1011.01 1011.99 1013.03 1014.06 1015.01 1015.85 1016.55 1017.11 1017.55 1017.89 1018.17 1018.42 1018.68
1014.33 1014.15 1013.88 1013.56 1013.23 1012.95 1012.76 1012.69 1012.78 1013.03 1013.43 1013.96 1014.54 1015.14 1015.66 1016.04 1016.22 1016.17 1015.86 1015.30 1014.52 1013.59 1012.58 1011.58 1010.67 1009.94 1009.46 1009.26 1009.35 1009.73 1010.35 1011.17 1012.12 1013.13 1014.13 1015.08 1015.92 1016.64 1017.24 1017.71 1018.09 1018.41 1018.68 1018.95
1013.71 1013.52 1013.29 1013.04 1012.82 1012.65 1012.57 1012.61 1012.79 1013.10 1013.54 1014.06 1014.62 1015.15 1015.60 1015.91 1016.03 1015.94 1015.61 1015.06 1014.34 1013.50 1012.60 1011.73 1010.96 1010.36 1009.97 1009.84 1009.98 1010.35 1010.95 1011.71 1012.59 1013.53 1014.46 1015.34 1016.14 1016.84 1017.43 1017.91 1018.31 1018.64 1018.93 1019.21
1012.96 1012.80 1012.64 1012.50 1012.40 1012.36 1012.41 1012.56 1012.82 1013.18 1013.62 1014.13 1014.64 1015.11 1015.50 1015.75 1015.83 1015.73 1015.43 1014.96 1014.35 1013.65 1012.92 1012.22 1011.62 1011.16 1010.89 1010.83 1011.00 1011.36 1011.91 1012.59 1013.37 1014.19 1015.01 1015.80 1016.51 1017.15 1017.69 1018.15 1018.54 1018.87 1019.17 1019.46
1012.13 1012.03 1011.97 1011.95 1011.99 1012.09 1012.26 1012.51 1012.84 1013.23 1013.68 1014.15 1014.61 1015.03 1015.36 1015.57 1015.65 1015.58 1015.35 1015.00 1014.54 1014.02 1013.48 1012.98 1012.55 1012.25 1012.09 1012.10 1012.29 1012.62 1013.10 1013.68 1014.34 1015.02 1015.72 1016.38 1016.98 1017.53 1018.01 1018.42 1018.79 1019.10 1019.40 1019.69
1011.29 1011.28 1011.33 1011.44 1011.62 1011.85 1012.13 1012.47 1012.85 1013.27 1013.70 1014.14 1014.55 1014.92 1015.21 1015.42 1015.52 1015.50 1015.38 1015.17 1014.88 1014.54 1014.20 1013.89 1013.64 1013.47 1013.41 1013.48 1013.66 1013.96 1014.36 1014.84 1015.37 1015.92 1016.47 1017.01 1017.50 1017.96 1018.37 1018.73 1019.06 1019.36 1019.65 1019.93
1010.49 1010.58 1010.76 1011.01 1011.31 1011.66 1012.04 1012.45 1012.87 1013.29 1013.71 1014.11 1014.48 1014.81 1015.09 1015.30 1015.44 1015.51 1015.50 1015.42 1015.30 1015.14 1014.98 1014.83 1014.72 1014.66 1014.68 1014.77 1014.95 1015.20 1015.53 1015.90 1016.31 1016.75 1017.19 1017.61 1018.01 1018.39 1018.74 1019.05 1019.35 1019.63 1019.90 1020.18
1009.77 1009.98 1010.28 1010.66 1011.09 1011.54 1012.00 1012.45 1012.89 1013.31 1013.71 1014.08 1014.42 1014.73 1015.00 1015.24 1015.43 1015.57 1015.66 1015.72 1015.74 1015.72 1015.70 1015.68 1015.67 1015.69 1015.75 1015.85 1016.01 1016.22 1016.48 1016.77 1017.10 1017.44 1017.79 1018.14 1018.47 1018.79 1019.10 1019.38 1019.65 1019.92 1020.18 1020.43
1009.14 1009.47 1009.90 1010.40 1010.93 1011.47 1011.99 1012.48 1012.94 1013.35 1013.73 1014.08 1014.39 1014.69 1014.97 1015.22 1015.46 1015.67 1015.86 1016.01 1016.13 1016.23 1016.30 1016.36 1016.42 1016.48 1016.56 1016.66 1016.80 1016.97 1017.18 1017.42 1017.68 1017.97 1018.27 1018.57 1018.87 1019.16 1019.44 1019.70 1019.96 1020.21 1020.45 1020.69
1008.57 1009.04 1009.60 1010.20 1010.83 1011.44 1012.02 1012.54 1013.00 1013.41 1013.78 1014.10 1014.41 1014.70 1014.99 1015.27 1015.54 1015.81 1016.06 1016.28 1016.47 1016.63 1016.76 1016.87 1016.96 1017.03 1017.11 1017.21 1017.33 1017.47 1017.65 1017.86 1018.10 1018.36 1018.63 1018.92 1019.20 1019.48 1019.75 1020.01 1020.26 1020.49 1020.71 1020.92
1008.04 1008.64 1009.32 1010.04 1010.75 1011.43 1012.05 1012.60 1013.08 1013.49 1013.85 1014.17 1014.47 1014.76 1015.06 1015.36 1015.66 1015.96 1016.25 1016.51 1016.74 1016.94 1017.10 1017.22 1017.32 1017.40 1017.48 1017.56 1017.67 1017.80 1017.97 1018.17 1018.40 1018.66 1018.93 1019.22 1019.50 1019.78 1020.04 1020.29 1020.52 1020.73 1020.93 1021.10
1007.50 1008.24 1009.05 1009.87 1010.67 1011.41 1012.07 1012.65 1013.14 1013.56 1013.92 1014.25 1014.55 1014.85 1015.16 1015.48 1015.80 1016.12 1016.43 1016.71 1016.96 1017.17 1017.34 1017.47 1017.57 1017.65 1017.73 1017.82 1017.93 1018.06 1018.23 1018.44 1018.67 1018.94 1019.21 1019.50 1019.78 1020.05 1020.30 1020.53 1020.74 1020.92 1021.08 1021.21
1006.94 1007.82 1008.75 1009.67 1010.54 1011.35 1012.06 1012.66 1013.18 1013.61 1013.99 1014.32 1014.64 1014.95 1015.27 1015.60 1015.94 1016.27 1016.58 1016.87 1017.13 1017.34 1017.52 1017.66 1017.77 1017.86 1017.95 1018.05 1018.18 1018.33 1018.51 1018.72 1018.97 1019.23 1019.50 1019.77 1020.04 1020.28 1020.51 1020.71 1020.88 1021.02 1021.13 1021.22
1006.38 1007.39 1008.42 1009.43 1010.37 1011.23 1011.98 1012.62 1013.15 1013.61 1014.01 1014.36 1014.69 1015.02 1015.36 1015.70 1016.04 1016.38 1016.70 1016.99 1017.26 1017.48 1017.66 1017.82 1017.95 1018.07 1018.19 1018.32 1018.46 1018.64 1018.84 1019.06 1019.30 1019.55 1019.80 1020.04 1020.27 1020.47 1020.65 1020.81 1020.93 1021.02 1021.08 1021.12
1005.87 1006.98 1008.10 1009.17 1010.17 1011.06 1011.84 1012.50 1013.06 1013.54 1013.96 1014.34 1014.69 1015.04 1015.39 1015.74 1016.09 1016.43 1016.76 1017.06 1017.33 1017.57 1017.77 1017.96 1018.12 1018.28 1018.44 1018.61 1018.79 1018.98 1019.20 1019.42 1019.64 1019.87 1020.08 1020.27 1020.44 1020.59 1020.71 1020.80 1020.86 1020.90 1020.92 1020.91
1005.46 1006.65 1007.82 1008.93 1009.95 1010.86 1011.65 1012.33 1012.90 1013.40 1013.84 1014.24 1014.61 1014.98 1015.34 1015.70 1016.06 1016.41 1016.74 1017.05 1017.34 1017.60 1017.83 1018.05 1018.26 1018.47 1018.67 1018.88 1019.10 1019.32 1019.54 1019.75 1019.95 1020.13 1020.29 1020.42 1020.52 1020.60 1020.65 1020.67 1020.68 1020.67 1020.64 1020.60
1005.22 1006.43 1007.62 1008.73 1009.75 1010.65 1011.43 1012.10 1012.69 1013.19 1013.65 1014.06 1014.46 1014.84 1015.22 1015.59 1015.95 1016.30 1016.64 1016.96 1017.26 1017.55 1017.82 1018.08 1018.33 1018.58 1018.83 1019.09 1019.33 1019.57 1019.79 1019.98 1020.15 1020.28 1020.38 1020.44 1020.47 1020.47 1020.45 1020.42 1020.37 1020.32 1020.26 1020.19
1005.16 1006.37 1007.53 1008.61 1009.58 1010.45 1011.20 1011.86 1012.43 1012.94 1013.40 1013.83 1014.23 1014.63 1015.02 1015.40 1015.77 1016.12 1016.46 1016.79 1017.11 1017.41 1017.71 1018.00 1018.30 1018.59 1018.88 1019.16 1019.42 1019.67 1019.88 1020.05 1020.18 1020.26 1020.30 1020.30 1020.26 1020.19 1020.12 1020.03 1019.94 1019.86 1019.78 1019.69
1005.27 1006.43 1007.54 1008.55 1009.46 1010.26 1010.97 1011.60 1012.15 1012.65 1013.11 1013.55 1013.97 1014.37 1014.77 1015.15 1015.52 1015.87 1016.21 1016.54 1016.86 1017.18 1017.49 1017.81 1018.13 1018.44 1018.75 1019.05 1019.33 1019.57 1019.76 1019.91 1020.00 1020.04 1020.02 1019.96 1019.87 1019.76 1019.63 1019.51 1019.40 1019.29 1019.19 1019.10
1005.49 1006.58 1007.60 1008.53 1009.36 1010.10 1010.75 1011.33 1011.86 1012.34 1012.80 1013.24 1013.66 1014.07 1014.47 1014.85 1015.22 1015.56 1015.90 1016.22 1016.54 1016.85 1017.17 1017.49 1017.81 1018.14 1018.45 1018.75 1019.02 1019.25 1019.42 1019.54 1019.60 1019.59 1019.54 1019.44 1019.30 1019.15 1019.00 1018.86 1018.73 1018.62 1018.51 1018.42
1005.73 1006.74 1007.66 1008.50 1009.24 1009.91 1010.50 1011.05 1011.55 1012.02 1012.47 1012.91 1013.33 1013.74 1014.14 1014.51 1014.87 1015.20 1015.52 1015.83 1016.13 1016.43 1016.73 1017.04 1017.36 1017.67 1017.97 1018.26 1018.51 1018.71 1018.86 1018.95 1018.98 1018.94 1018.86 1018.73 1018.57 1018.40 1018.24 1018.08 1017.95 1017.83 1017.73 1017.64
1005.90 1006.82 1007.65 1008.40 1009.07 1009.67 1010.22 1010.73 1011.21 1011.66 1012.11 1012.54 1012.96 1013.37 1013.76 1014.12 1014.46 1014.78 1015.08 1015.36 1015.64 1015.92 1016.20 1016.49 1016.78 1017.06 1017.34 1017.60 1017.82 1017.99 1018.11 1018.17 1018.17 1018.11 1018.01 1017.86 1017.70 1017.52 1017.35 1017.20 1017.06 1016.95 1016.85 1016.76
Thickness
5655 5660 5659 5657 5658 5655 5647 5643 5637 5643 5645 5652 5652 5650 5648 5645 5641 5639 5637 5635 5631 5627 5622 5619 5615 5611 5608 5604 5600 5596 5593 5589 5586 5584 5582 5581 5579 5578 5577 5576 5576 5576 5576 5576
5651 5658 5656 5654 5657 5656 5653 5649 5645 5646 5646 5652 5649 5646 5643 5640 5637 5634 5632 5629 5626 5621 5616 5612 5608 5604 5600 5597 5593 5589 5585 5582 5579 5576 5574 5573 5571 5570 5569 5568 5568 5568 5568 5569
5638 5648 5650 5644 5654 5655 5653 5653 5649 5643 5646 5647 5644 5642 5639 5636 5634 5630 5627 5624 5620 5616 5611 5607 5602 5598 5594 5590 5586 5582 5578 5575 5572 5569 5567 5565 5564 5563 5562 5561 5561 5561 5561 5561
5631 5638 5633 5648 5662 5660 5654 5653 5651 5648 5646 5643 5641 5638 5636 5634 5630 5626 5623 5619 5615 5610 5606 5601 5596 5592 5588 5584 5580 5576 5572 5569 5566 5563 5560 5558 5557 5556 5555 5554 5553 5553 5554 5554
5624 5626 5634 5650 5658 5656 5649 5647 5650 5646 5642 5639 5635 5633 5630 5629 5626 5622 5618 5614 5610 5605 5601 5595 5591 5586 5582 5578 5573 5570 5566 5563 5560 5557 5555 5553 5551 5549 5548 5547 5547 5547 5547 5548
5623 5625 5626 5645 5659 5661 5652 5640 5648 5644 5638 5634 5631 5623 5623 5623 5620 5616 5612 5608 5604 5599 5595 5590 5585 5581 5577 5572 5568 5564 5561 5558 5555 5552 5550 5547 5545 5543 5542 5541 5541 5541 5541 5542
5623 5622 5632 5652 5658 5655 5635 5637 5646 5642 5637 5632 5627 5623 5620 5617 5614 5610 5606 5602 5598 5593 5588 5584 5580 5576 5571 5567 5563 5559 5556 5553 5550 5548 5545 5543 5541 5539 5537 5536 5536 5536 5536 5536
5622 5621 5631 5655 5652 5644 5643 5646 5643 5639 5635 5629 5623 5618 5616 5612 5607 5603 5600 5596 5593 5588 5582 5578 5575 5571 5567 5562 5559 5555 5551 5549 5546 5544 5542 5540 5537 5535 5534 5533 5532 5531 5532 5533
5636 5639 5649 5652 5652 5650 5646 5642 5639 5634 5630 5625 5618 5614 5611 5606 5602 5598 5595 5591 5587 5583 5578 5573 5570 5567 5563 5559 5555 5552 5548 5545 5543 5541 5539 5536 5534 5533 5531 5529 5529 5529 5529 5530
5639 5646 5650 5650 5649 5647 5644 5641 5638 5633 5627 5622 5616 5611 5607 5602 5597 5593 5590 5587 5583 5579 5575 5570 5567 5564 5560 5557 5553 5549 5546 5542 5540 5538 5536 5534 5532 5531 5529 5528 5527 5527 5527 5528
5641 5647 5649 5650 5647 5645 5641 5638 5633 5628 5623 5618 5613 5607 5603 5599 5594 5591 5587 5584 5580 5577 5573 5569 5565 5562 5559 5555 5551 5547 5544 5541 5539 5536 5534 5532 5530 5529 5528 5527 5526 5526 5526 5526
5647 5652 5647 5647 5648 5644 5639 5635 5630 5624 5618 5614 5610 5605 5601 5596 5592 5588 5585 5581 5578 5574 5571 5568 5565 5561 5558 5555 5551 5547 5543 5540 5538 5535 5533 5531 5529 5528 5528 5528 5528 5527 5527 5526
5660 5659 5653 5652 5648 5644 5639 5634 5629 5623 5617 5611 5607 5603 5599 5594 5590 5587 5584 5580 5577 5574 5571 5567 5564 5561 5558 5555 5552 5548 5544 5541 5538 5535 5533 5531 5530 5529 5529 5529 5529 5529 5529 5529
5661 5657 5650 5648 5645 5643 5639 5633 5628 5622 5616 5611 5605 5601 5597 5593 5589 5586 5583 5581 5577 5573 5570 5567 5564 5561 5559 5556 5552 5549 5545 5542 5540 5537 5535 5533 5531 5531 5530 5529 5530 5531 5531 5531
5661 5660 5655 5650 5645 5640 5636 5630 5624 5618 5614 5608 5604 5601 5597 5593 5590 5587 5584 5581 5577 5573 5570 5568 5565 5562 5560 5557 5553 5550 5547 5544 5542 5539 5537 5535 5534 5533 5532 5532 5531 5532 5533 5534
5659 5656 5653 5648 5643 5638 5634 5629 5624 5618 5614 5609 5605 5602 5598 5595 5591 5587 5584 5581 5577 5574 5572 5569 5566 5565 5562 5558 5555 5552 5549 5547 5545 5542 5540 5539 5537 5536 5536 5535 5535 5536 5536 5537
5656 5651 5648 5645 5642 5638 5635 5631 5627 5622 5617 5611 5607 5603 5598 5594 5590 5587 5584 5582 5579 5577 5574 5572 5570 5568 5564 5561 5558 5555 5552 5550 5548 5546 5544 5542 5541 5541 5540 5540 5540 5540 5541 5542
5666 5663 5658 5653 5647 5641 5636 5633 5629 5624 5619 5615 5610 5604 5600 5596 5592 5589 5587 5583 5581 5578 5576 5575 5573 5570 5567 5564 5561 5558 5556 5553 5551 5549 5548 5547 5546 5545 5545 5544 5545 5545 5546 5547
5664 5661 5657 5653 5650 5645 5640 5634 5630 5626 5622 5617 5612 5607 5603 5600 5596 5592 5589 5586 5583 5581 5580 5579 5576 5573 5570 5568 5565 5562 5560 5557 5555 5554 5552 5551 5550 5550 5550 5550 5550 5551 5551 5552
5663 5660 5657 5653 5650 5646 5641 5637 5632 5627 5623 5619 5614 5609 5605 5602 5599 5595 5591 5589 5588 5587 5585 5582 5579 5576 5574 5572 5569 5566 5564 5562 5560 5558 5556 5555 5555 5555 5555 5555 5556 5556 5557 5557
5663 5660 5656 5653 5650 5647 5644 5639 5634 5629 5625 5621 5617 5612 5609 5606 5602 5598 5594 5592 5593 5591 5588 5585 5583 5580 5578 5576 5573 5570 5568 5566 5564 5562 5561 5560 5559 5559 5559 5560 5560 5561 5562 5562
5663 5660 5657 5654 5650 5646 5644 5640 5637 5632 5627 5623 5620 5616 5612 5608 5605 5601 5599 5598 5598 5595 5592 5589 5587 5585 5582 5579 5576 5574 5572 5570 5568 5567 5565 5564 5563 5563 5563 5564 5564 5565 5566 5566
5663 5660 5657 5654 5651 5647 5644 5641 5638 5634 5630 5627 5623 5619 5616 5613 5609 5606 5603 5603 5601 5598 5596 5593 5591 5588 5585 5582 5580 5578 5576 5574 5573 5571 5570 5569 5568 5567 5567 5568 5568 5568 5569 5569
5663 5660 5657 5655 5651 5647 5643 5641 5639 5636 5633 5630 5627 5624 5620 5616 5612 5612 5610 5608 5605 5602 5600 5598 5595 5592 5588 5586 5584 5582 5580 5579 5577 5576 5575 5574 5573 5572 5572 5571 5572 5572 5573 5573
5662 5659 5656 5652 5649 5648 5645 5642 5639 5636 5634 5631 5629 5627 5624 5622 5619 5617 5614 5612 5609 5606 5603 5601 5598 5595 5592 5590 5588 5586 5585 5583 5582 5581 5579 5578 5577 5577 5576 5576 5576 5576 5576 5576
5660 5658 5656 5655 5653 5650 5647 5643 5640 5638 5635 5633 5631 5629 5626 5624 5622 5619 5617 5614 5612 5609 5607 5605 5602 5599 5596 5594 5593 5591 5589 5588 5586 5585 5583 5582 5581 5580 5580 5580 5580 5579 5579 5580
5658 5656 5654 5652 5651 5650 5648 5646 5643 5640 5639 5636 5634 5632 5629 5627 5624 5622 5619 5617 5614 5612 5610 5608 5606 5603 5601 5599 5597 5595 5593 5592 5590 5589 5587 5586 5585 5584 5584 5583 5583 5582 5582 5582